Tucumcari, NM

2:22 AM MDT on July 23, 2017 (GMT -0600)
Tucumcari Municipal

Weather History for KTCC - May, 2013

Change the Weather History Date:

Sunday, May 12, 2013

  Actual Average Record
Temperature  
Mean Temperature 64 °F -  
Max Temperature 84 °F 82 °F 97 °F (1962)
Min Temperature 46 °F 49 °F 34 °F (1918)
Degree Days  
Heating Degree Days 1    
Growing Degree Days 14 (Base 50)    
Moisture  
Dew Point 33 °F    
Average Humidity 32    
Maximum Humidity 61    
Minimum Humidity 14    
Precipitation  
Precipitation 0.00 in - - ()
Sea Level Pressure  
Sea Level Pressure 30.09 in    
Wind  
Wind Speed 7 mph (SW)    
Max Wind Speed 17 mph    
Max Gust Speed 25 mph    
Visibility 10 miles    
Events      
Averages and records for this station are not official NWS values.
T = Trace of Precipitation, MM = Missing Value Source: NWS Daily Summary

Daily Weather History Graph

Daily Weather History Graph

Search for Another Location

Airport or City:

Trip Planner

Search our weather history database for the weather conditions in past years. The results will help you decide how hot, cold, wet, or windy it might be!

Date:

Astronomy

May. 12, 2013 Rise Set
Actual Time 5:52 AM MDT 7:49 PM MDT
Civil Twilight 5:24 AM MDT 8:17 PM MDT
Nautical Twilight 4:50 AM MDT 8:51 PM MDT
Astronomical Twilight 4:14 AM MDT 9:27 PM MDT
Moon 7:50 AM MDT (5/12) 10:17 PM MDT (5/12)
Length of Visible Light 14h 52m
Length of Day
13h 56m
Waxing Crescent, 7% of the Moon is Illuminated
May 12
Waxing Crescent
May 17
First Quarter
May 24
Full
May 31
Last Quarter
Jun 8
New

Hourly Weather History & Observations

Time (MDT) Temp. Dew Point Humidity Pressure Visibility Wind Dir Wind Speed Gust Speed Precip Events Conditions
12:53 AM 57.0 °F 36.0 °F 45% 30.20 in 10.0 mi Calm Calm - N/A   Clear
1:53 AM 53.1 °F 36.0 °F 52% 30.18 in 10.0 mi SSE 5.8 mph - N/A   Clear
2:53 AM 48.0 °F 34.0 °F 58% 30.18 in 10.0 mi South 6.9 mph - N/A   Clear
3:53 AM 46.9 °F 34.0 °F 61% 30.19 in 10.0 mi SSW 5.8 mph - N/A   Clear
4:53 AM 48.0 °F 34.0 °F 58% 30.18 in 10.0 mi West 8.1 mph - N/A   Clear
5:53 AM 50.0 °F 36.0 °F 59% 30.18 in 10.0 mi West 5.8 mph - N/A   Clear
6:53 AM 53.1 °F 37.0 °F 55% 30.18 in 10.0 mi West 4.6 mph - N/A   Clear
7:53 AM 60.1 °F 37.9 °F 44% 30.17 in 10.0 mi SW 6.9 mph - N/A   Clear
8:53 AM 66.9 °F 37.0 °F 33% 30.16 in 10.0 mi SW 12.7 mph - N/A   Clear
9:53 AM 72.0 °F 37.0 °F 28% 30.13 in 10.0 mi WSW 12.7 mph 21.9 mph N/A   Clear
10:53 AM 75.0 °F 36.0 °F 24% 30.12 in 10.0 mi SW 16.1 mph 25.3 mph N/A   Clear
11:53 AM 77.0 °F 35.1 °F 22% 30.09 in 10.0 mi WSW 17.3 mph 21.9 mph N/A   Clear
12:53 PM 78.1 °F 33.1 °F 19% 30.06 in 10.0 mi Variable 4.6 mph - N/A   Clear
1:53 PM 80.1 °F 33.1 °F 18% 30.04 in 10.0 mi Variable 4.6 mph - N/A   Clear
2:53 PM 81.0 °F 30.0 °F 16% 30.03 in 10.0 mi West 8.1 mph 21.9 mph N/A   Clear
3:53 PM 82.0 °F 30.0 °F 15% 30.00 in 10.0 mi SSW 11.5 mph 18.4 mph N/A   Partly Cloudy
4:53 PM 82.0 °F 30.0 °F 15% 29.99 in 10.0 mi SSW 9.2 mph 16.1 mph N/A   Scattered Clouds
5:53 PM 82.0 °F 28.9 °F 14% 29.98 in 10.0 mi SW 15.0 mph 21.9 mph N/A   Partly Cloudy
6:53 PM 80.1 °F 30.9 °F 17% 29.97 in 10.0 mi WSW 16.1 mph - N/A   Partly Cloudy
7:53 PM 73.9 °F 30.9 °F 21% 29.98 in 10.0 mi SW 10.4 mph - N/A   Clear
8:53 PM 69.1 °F 32.0 °F 25% 29.99 in 10.0 mi SW 9.2 mph - N/A   Clear
9:53 PM 66.9 °F 30.0 °F 25% 30.01 in 10.0 mi SW 13.8 mph - N/A   Clear
10:53 PM 64.9 °F 28.9 °F 26% 30.02 in 10.0 mi SW 10.4 mph - N/A   Clear
11:53 PM 64.0 °F 28.0 °F 26% 30.03 in 10.0 mi WSW 8.1 mph - N/A   Clear